STARLINK-3832 (52646 NORAD) Tracking and Keplerian Element Data

This shows tracking and keplerian element data for the satellite.

Feedback or suggestion? Click here.




ElementValue
Catalog52646
NameSTARLINK-3832
Epoch Orbit130
Epoch Day192.91667824
Epoch Year2022
RAAN152.1474
Inclination53.2153
Eccentricity0.0002454
Argument of Perigee22.2135
Mean Anonmoly253.4239
Mean Motion15.73236591
Decay Rate-0.00049495
L11 52646U 22052BA 22192.91667824 -.00049495 00000+0 -34969-3 0 9999
L22 52646 53.2153 152.1474 0002454 22.2135 253.4239 15.73236591 1302

Live tracking and technical data element details for STARLINK-3832 (NORAD 52646). STARLINK-3832 can be tracked NOW for your location showing map with azimuth and elevation plus other details from your city location.

Track the satellite on the map from your city or location and see movement details for azimuth, elevation, latitude, longitude, range, height, and movement on the map or in text.







IsCatalogInMostPopularTable: catalog: 52646, numindb: 5
Update: records affected: 1



GetName: 52646 STARLINK-3832

Hit Count: updated at: Sun, 14 Aug 2022 00:29:50 GMT